Change the Weather History Date:

Monday, March 18, 2013

  Actual Average Record
Temperature  
Mean Temperature 51 °F 49 °F  
Max Temperature 61 °F 61 °F 87 °F (1908)
Min Temperature 40 °F 38 °F 14 °F (1902)
Degree Days  
Heating Degree Days 14 16  
Month to date heating degree days 385 337  
Since 1 July heating degree days 3280 3535  
Cooling Degree Days 0 0  
Month to date cooling degree days 0 0  
Year to date cooling degree days 0 0  
Growing Degree Days 2 (Base 50)    
Moisture  
Dew Point 46 °F    
Average Humidity 80    
Maximum Humidity 89    
Minimum Humidity 70    
Precipitation  
Precipitation 1.62 in 0.14 in 3.00 in (1919)
Month to date precipitation 4.01 2.48  
Year to date precipitation 11.70 10.05  
Snow  
Snow 0.00 in 0.00 in 0.70 in (1949)
Month to date snowfall 1.5 0.6  
Since 1 July snowfall 2.8 8.4  
Snow Depth 0.00 in    
Sea Level Pressure  
Sea Level Pressure 29.76 in    
Wind  
Wind Speed 8 mph (SW)    
Max Wind Speed 23 mph    
Max Gust Speed 35 mph    
Visibility 6 miles    
Events Rain , Thunderstorm    
T = Trace of Precipitation, MM = Missing Value Source: NWS Daily Summary

Daily Weather History Graph

Daily Weather History Graph

Search for Another Location

Airport or City:

Trip Planner

Search our weather history database for the weather conditions in past years. The results will help you decide how hot, cold, wet, or windy it might be!

Date:

Astronomy

Mar. 18, 2013 Rise Set
Actual Time 6:51 AM CDT 6:55 PM CDT
Civil Twilight 6:25 AM CDT 7:21 PM CDT
Nautical Twilight 5:55 AM CDT 7:52 PM CDT
Astronomical Twilight 5:25 AM CDT 8:22 PM CDT
Moon 10:59 AM CDT (3/18) 12:46 AM CDT (3/18)
Length of Visible Light 12h 55m
Length of Day
12h 04m
Waxing Crescent, 41% of the Moon is Illuminated
Mar 18
Waxing Crescent
Mar 19
First Quarter
Mar 27
Full
Apr 2
Last Quarter
Apr 10
New

Hourly Weather History & Observations

Time (CDT) Temp. Windchill Dew Point Humidity Pressure Visibility Wind Dir Wind Speed Gust Speed Precip Events Conditions
12:53 AM 44.1 °F 41.5 °F 41.0 °F 89% 29.77 in 6.0 mi ESE 4.6 mph - N/A   Overcast
1:53 AM 46.0 °F - 43.0 °F 89% 29.75 in 8.0 mi Calm Calm - N/A   Overcast
2:53 AM 48.0 °F - 44.1 °F 86% 29.72 in 9.0 mi Calm Calm - N/A   Overcast
3:53 AM 61.0 °F - 53.1 °F 75% 29.68 in 10.0 mi South 19.6 mph 25.3 mph N/A   Mostly Cloudy
4:30 AM 53.6 °F - 46.4 °F 77% 29.71 in 10.0 mi Variable 4.6 mph 17.3 mph N/A   Overcast
4:51 AM 51.8 °F - 46.4 °F 82% 29.70 in 10.0 mi Calm Calm - N/A Thunderstorm Overcast
4:53 AM 52.0 °F - 46.9 °F 83% 29.69 in 10.0 mi Variable 4.6 mph - N/A Thunderstorm Overcast
5:04 AM 51.8 °F - 46.4 °F 82% 29.69 in 9.0 mi ESE 5.8 mph - N/A Thunderstorm Overcast
5:18 AM 46.4 °F 38.7 °F 42.8 °F 87% 29.73 in 8.0 mi NW 20.7 mph 31.1 mph 0.00 in Rain , Thunderstorm Light Rain
5:30 AM 44.6 °F 37.2 °F 39.2 °F 81% 29.75 in 7.0 mi NNW 17.3 mph 27.6 mph 0.03 in Rain , Thunderstorm Light Thunderstorms and Rain
5:39 AM 42.8 °F 35.8 °F 39.2 °F 87% 29.74 in 1.8 mi North 13.8 mph 24.2 mph 0.25 in Rain , Thunderstorm Heavy Thunderstorms and Rain
5:49 AM 42.8 °F 37.0 °F 39.2 °F 87% 29.75 in 3.0 mi NE 10.4 mph 18.4 mph 0.33 in Rain , Thunderstorm Heavy Thunderstorms and Rain
6:13 AM 42.8 °F 40.1 °F 41.0 °F 93% 29.75 in 1.8 mi North 4.6 mph - 0.19 in Rain , Thunderstorm Heavy Thunderstorms and Rain
6:23 AM 42.8 °F 37.5 °F 41.0 °F 93% 29.72 in 3.0 mi East 9.2 mph - 0.21 in Rain , Thunderstorm Light Thunderstorms and Rain
6:39 AM 44.6 °F 42.2 °F 42.8 °F 93% 29.75 in 7.0 mi Variable 4.6 mph - 0.24 in Rain Light Rain
6:46 AM 44.6 °F 41.4 °F 42.8 °F 93% 29.74 in 10.0 mi East 5.8 mph - 0.24 in Rain Light Rain
6:53 AM 44.1 °F 40.1 °F 42.1 °F 93% 29.73 in 8.0 mi East 6.9 mph - 0.25 in Rain Light Rain
7:04 AM 44.6 °F 40.2 °F 42.8 °F 93% 29.74 in 6.0 mi SSW 8.1 mph - 0.01 in Rain , Thunderstorm Light Thunderstorms and Rain
7:28 AM 46.4 °F - 44.6 °F 93% 29.73 in 2.0 mi Calm Calm - 0.11 in Rain , Thunderstorm Thunderstorms and Rain
7:34 AM 46.4 °F - 44.6 °F 93% 29.74 in 3.0 mi Calm Calm - 0.13 in Rain , Thunderstorm Thunderstorms and Rain
7:41 AM 46.4 °F - 44.6 °F 93% 29.73 in 2.0 mi Calm Calm - 0.18 in Rain , Thunderstorm Heavy Thunderstorms and Rain
7:53 AM 46.0 °F 44.8 °F 44.1 °F 93% 29.74 in 3.0 mi SSW 3.5 mph - 0.20 in Rain , Thunderstorm Thunderstorms and Rain
8:02 AM 46.4 °F - 44.6 °F 93% 29.72 in 3.0 mi Calm Calm - 0.03 in Rain , Thunderstorm Rain
8:29 AM 46.4 °F - 46.4 °F 100% 29.69 in 4.0 mi Calm Calm - 0.06 in Rain , Thunderstorm Light Rain
8:36 AM 46.4 °F 43.5 °F 44.6 °F 93% 29.72 in 1.8 mi South 5.8 mph - 0.07 in Rain , Thunderstorm Light Rain
8:43 AM 46.4 °F 43.5 °F 46.4 °F 100% 29.73 in 1.2 mi South 5.8 mph - 0.11 in Rain , Thunderstorm Heavy Thunderstorms and Rain
8:51 AM 48.2 °F - 46.4 °F 93% 29.73 in 1.5 mi South 5.8 mph - 0.16 in Rain , Thunderstorm Thunderstorms and Rain
8:53 AM 48.0 °F - 46.9 °F 96% 29.76 in 1.8 mi South 10.4 mph - 0.18 in Rain , Thunderstorm Heavy Thunderstorms and Rain
9:00 AM 48.2 °F - 48.2 °F 100% 29.73 in 0.8 mi Calm Calm - 0.11 in Rain , Thunderstorm Heavy Thunderstorms and Rain
9:10 AM 50.0 °F - 48.2 °F 94% 29.76 in 1.0 mi South 8.1 mph - 0.27 in Rain , Thunderstorm Heavy Thunderstorms and Rain
9:15 AM 51.8 °F - 48.2 °F 88% 29.75 in 1.5 mi South 10.4 mph - 0.29 in Rain , Thunderstorm Heavy Thunderstorms and Rain
9:25 AM 53.6 °F - 50.0 °F 88% 29.75 in 2.5 mi SSW 8.1 mph - 0.33 in Rain , Thunderstorm Heavy Thunderstorms and Rain
9:44 AM 53.6 °F - 51.8 °F 94% 29.73 in 3.0 mi SSE 5.8 mph - 0.42 in Rain Rain
9:53 AM 53.1 °F - 51.1 °F 93% 29.72 in 2.5 mi SSE 9.2 mph - 0.48 in Rain Heavy Rain
10:01 AM 53.6 °F - 51.8 °F 94% 29.74 in 3.0 mi South 11.5 mph - 0.03 in Rain , Thunderstorm Thunderstorms and Rain
10:53 AM 55.0 °F - 52.0 °F 89% 29.74 in 5.0 mi South 11.5 mph - 0.14 in Rain Light Rain
10:58 AM 55.4 °F - 53.6 °F 94% 29.72 in 7.0 mi South 9.2 mph - 0.01 in Rain Light Rain
11:06 AM 55.4 °F - 53.6 °F 94% 29.72 in 10.0 mi SSW 9.2 mph - 0.01 in Rain Light Rain
11:15 AM 55.4 °F - 53.6 °F 94% 29.73 in 10.0 mi SSW 11.5 mph - 0.01 in Thunderstorm Overcast
11:24 AM 55.4 °F - 53.6 °F 94% 29.73 in 10.0 mi SSW 10.4 mph - 0.01 in   Overcast
11:53 AM 57.0 °F - 53.1 °F 87% 29.73 in 10.0 mi SW 11.5 mph - 0.01 in   Overcast
12:03 PM 55.4 °F - 53.6 °F 94% 29.72 in 9.0 mi West 10.4 mph - N/A   Overcast
12:53 PM 55.0 °F - 52.0 °F 89% 29.74 in 8.0 mi WSW 5.8 mph - N/A   Overcast
1:53 PM 55.9 °F - 52.0 °F 87% 29.74 in 8.0 mi West 9.2 mph - N/A   Overcast
2:19 PM 57.2 °F - 50.0 °F 77% 29.73 in 10.0 mi WSW 17.3 mph 20.7 mph N/A   Overcast
2:53 PM 57.9 °F - 50.0 °F 75% 29.71 in 10.0 mi WSW 11.5 mph - N/A   Mostly Cloudy
3:53 PM 57.0 °F - 48.9 °F 74% 29.73 in 10.0 mi WSW 9.2 mph - N/A   Overcast
4:53 PM 57.0 °F - 48.0 °F 72% 29.77 in 10.0 mi West 9.2 mph - N/A   Overcast
5:53 PM 54.0 °F - 46.0 °F 75% 29.81 in 10.0 mi WNW 8.1 mph - N/A   Overcast
6:53 PM 52.0 °F - 44.1 °F 74% 29.84 in 10.0 mi NW 9.2 mph 19.6 mph N/A   Overcast
7:46 PM 50.0 °F - 42.8 °F 76% 29.86 in 10.0 mi NW 10.4 mph - N/A   Mostly Cloudy
7:53 PM 50.0 °F - 42.1 °F 74% 29.87 in 10.0 mi WNW 11.5 mph 18.4 mph N/A   Overcast
8:19 PM 48.2 °F - 39.2 °F 71% 29.88 in 10.0 mi NNW 9.2 mph 20.7 mph N/A   Scattered Clouds
8:53 PM 46.9 °F - 37.9 °F 71% 29.92 in 10.0 mi WNW 9.2 mph - N/A   Mostly Cloudy
9:53 PM 45.0 °F 42.6 °F 35.1 °F 68% 29.95 in 10.0 mi NW 4.6 mph - N/A   Clear
10:53 PM 43.0 °F - 35.1 °F 74% 29.96 in 10.0 mi Calm Calm - N/A   Clear
11:53 PM 41.0 °F 39.0 °F 35.1 °F 79% 29.99 in 10.0 mi SW 3.5 mph - N/A   Clear